Regional Weather Roundup
Issued by NWS Newport/Morehead, NC

Current Version | Previous Version | Text Only | Print | Product List | Glossary Off
Versions: 1 2 3 4 5 6 7 8 9 10 11 12 13 14 15 16 17 18 19 20 21 22 23 24 25 26 27 28 29 30 31 32 33 34 35 36 37 38 39 40 41 42 43 44 45 46 47 48 49 50
000 ASUS42 KMHX 282225 RWRMHX WEATHER ROUNDUP FOR EASTERN NORTH CAROLINA NATIONAL WEATHER SERVICE NEWPORT/MOREHEAD CITY NC 600 PM EDT FRI APR 28 2017 NOTE: "FAIR" INDICATES FEW OR NO CLOUDS BELOW 12,000 FEET WITH NO SIGNIFICANT WEATHER AND/OR OBSTRUCTIONS TO VISIBILITY NCZ015>017-031-032-045>047-102-103-282300- NORTH COAST CITY SKY/WX TMP DP RH WIND PRES REMARKS EDENTON SUNNY 86 74 66 S9 30.05S ELIZABETH CITY SUNNY 85 74 69 S9 30.05R KITTY HAWK CLEAR 80 71 73 S3 30.06R MANTEO SUNNY 78 72 82 S20 30.08R $$ NCZ045>047-081-094-103-104-282300- CENTRAL COAST CITY SKY/WX TMP DP RH WIND PRES REMARKS FRISCO PTSUNNY 78 72 81 SW9G18 30.12R HAZE $$ NCZ095-097-098-100-101-282300- SOUTHERN COAST CITY SKY/WX TMP DP RH WIND PRES REMARKS BEAUFORT MOSUNNY 78 75 90 SW15 30.12R CEDAR ISLAND NOT AVBL JACKSONVILLE MOSUNNY 83 75 77 S13 30.08S PINEY ISLAND MOCLDY N/A N/A N/A SW17G28 30.10S WILMINGTON PTSUNNY 82 74 76 SW13 30.10S $$ NCZ011>013-027>030-043-044-078>080-089-090>093-098-282300- COASTAL PLAIN CITY SKY/WX TMP DP RH WIND PRES REMARKS AHOSKIE N/A 84 69 60 S5 30.04S CLINTON SUNNY 87 74 64 S3 30.06S ELIZABETHTOWN MOSUNNY 85 74 68 SE10G18 30.07R GOLDSBORO MOSUNNY 89 70 54 S9 30.03F GREENVILLE MOSUNNY 88 70 55 SW12 30.06S HAZE HAVELOCK MOSUNNY 80 72 76 SW16 30.11R KENANSVILLE SUNNY 86 72 62 S5 30.07S KINSTON MOSUNNY 88 70 55 S14 30.06S NEW BERN MOSUNNY 84 74 71 S8G20 30.09R RICHLANDS SUNNY 85 73 67 S12G20 30.08S ROCKY MOUNT MOSUNNY 87 67 51 S9 30.04S WASHINGTON MOSUNNY 85 74 70 S9 30.06R WHITEVILLE SUNNY 84 74 71 S7G16 30.08S $$ AMZ130-135-150-152-154-156-158-170-250-252-270-ANZ085-086-088-633-658-670-282300- MARINE OBSERVATIONS STATION/POSITION TIME TEMP WIND PRES WAVE SWELL AIR SEA DIR/SP/G HT/PER HT/PER (UTC) (F) (DEG/KT/KT) (MB) (FT/S) (FT/S) CHESAPEAKE LIGHT NOT AVBL 64 E VA BEACH 2150 62 58 200/ 12/ 14 1018.8 5/ 6 3/ 6 DUCK 2200 81 58 210/ 14/ 19 1017.3 2 E DUCK 2200 62 N/A 3/ 8 2/11 OREGON INLET 2200 75 76 190/ 19/ 21 1018.7 13E OREGON INLT 2148 62 N/A 4/ 6 2/12 HATTERAS CG 2200 76 72 200/ 9/ 14 1019.6 DIAMOND BUOY 2150 78 76 210/ 16/ 19 1020.0 4/ 8 3/ 8 CAPE LOOKOUT 2200 76 210/ 11/ 15 1019.8 BEAUFORT LAB 2200 76 72 200/ 12/ 16 1019.2 30 SE NEW RVR IN 2208 74 210/ 10/ 14 1020.3 30 SE NEW RVR IN 2143 73 N/A 4/ 6 27 SE WRIGHTSVLE 2208 75 73 200/ 10/ 14 1019.6 5 SE WRIGHTSVLE 2208 73 71 200/ 8/ 12 1019.8 225 S CAPE HAT 2150 75 76 180/ 10/ 10 1022.6 4/ 8 3/ 8 41 SE CHARLESTON 2200 76 75 170/ 10/ 12 1019.5 $$

USA.gov is the U.S. government's official web portal to all federal, state and local government web resources and services.